Find Shiyan 23 Weixing

NORAD ID: 59728 Int'l Des: 2024-089 Owner: CNSA Country: CN operational
LEOCIRCULARRETROGRADESSO

实时位置

正在加载3D地球...

关于 Shiyan 23 Weixing

正在加载描述...

即将过境

Passes for default location (London). Set your location on the main map for personalized predictions.

高度历史

Loading altitude history...

两行轨道根数

1 59728U 24089A 26105.68669707 .00000284 00000-0 37723-4 0 9997
2 59728 97.7780 108.7550 0004607 56.7686 303.3971 14.86957640104553
Epoch: Apr 15, 2026 • Age: 14 hours

当前状态

高度 637.2 km
速度 7.54 km/s
星下点 -76.65°S, 160.07°W
发射日期 May 11, 2024
运行时间 1.9 years
类型 other

技术详情

分类 Payload
质量 1000.00 kg
干质量 1000.00 kg
总质量 1000.00 kg
长度 1.50 m
直径 1.50 m
跨度 5.00 m
形状 Box + 2 Pan
制造商 CAST
平台类型 SY23
阶段状态 In Orbit
所有者/国家 CNSA/CN

Most Searched